Indianapolis, IN

5:06 PM EDT on June 25, 2017 (GMT -0400)
Indianapolis International

Weather History for KIND - February, 2013

Change the Weather History Date:

Monday, February 25, 2013

  Actual Average Record
Temperature  
Mean Temperature 35 °F 35 °F  
Max Temperature 44 °F 44 °F 76 °F (2000)
Min Temperature 26 °F 27 °F -7 °F (1900)
Degree Days  
Heating Degree Days 30 30  
Month to date heating degree days 859 835  
Since 1 July heating degree days 3923 4056  
Cooling Degree Days 0 0  
Month to date cooling degree days 0 0  
Year to date cooling degree days 0 0  
Moisture  
Dew Point 23 °F    
Average Humidity 63    
Maximum Humidity 81    
Minimum Humidity 45    
Precipitation  
Precipitation 0.00 in 0.09 in 2.35 in (1890)
Month to date precipitation 0.95 2.05  
Year to date precipitation 6.46 4.71  
Snow  
Snow 0.00 in 0.20 in 7.80 in (1965)
Month to date snowfall 2.0 6.0  
Since 1 July snowfall 19.4 22.6  
Snow Depth 0.00 in    
Sea Level Pressure  
Sea Level Pressure 30.06 in    
Wind  
Wind Speed 11 mph (East)    
Max Wind Speed 21 mph    
Max Gust Speed 25 mph    
Visibility 10 miles    
Events      
T = Trace of Precipitation, MM = Missing Value Source: NWS Daily Summary

Daily Weather History Graph

Daily Weather History Graph

Search for Another Location

Airport or City:

Trip Planner

Search our weather history database for the weather conditions in past years. The results will help you decide how hot, cold, wet, or windy it might be!

Date:

Astronomy

Feb. 25, 2013 Rise Set
Actual Time 7:23 AM EST 6:33 PM EST
Civil Twilight 6:56 AM EST 7:00 PM EST
Nautical Twilight 6:25 AM EST 7:31 PM EST
Astronomical Twilight 5:54 AM EST 8:02 PM EST
Moon 6:45 PM EST 6:53 AM EST
Length of Visible Light 12h 03m
Length of Day
11h 09m
Full, 100% of the Moon is Illuminated
Feb 25
Full
Feb 25
Full
Mar 4
Last Quarter
Mar 11
New
Mar 19
First Quarter

Hourly Weather History & Observations

Time (EST) Temp. Windchill Dew Point Humidity Pressure Visibility Wind Dir Wind Speed Gust Speed Precip Events Conditions
12:54 AM 28.9 °F 23.9 °F 21.9 °F 75% 30.14 in 10.0 mi East 4.6 mph - N/A   Clear
1:54 AM 30.0 °F 23.2 °F 21.9 °F 72% 30.12 in 10.0 mi ENE 6.9 mph - N/A   Clear
2:54 AM 28.0 °F 21.7 °F 21.9 °F 78% 30.12 in 10.0 mi ENE 5.8 mph - N/A   Clear
3:54 AM 28.0 °F 20.8 °F 21.0 °F 75% 30.12 in 10.0 mi East 6.9 mph - N/A   Clear
4:54 AM 28.0 °F 21.7 °F 21.0 °F 75% 30.13 in 10.0 mi East 5.8 mph - N/A   Clear
5:54 AM 27.0 °F 20.5 °F 21.0 °F 78% 30.15 in 10.0 mi East 5.8 mph - N/A   Clear
6:54 AM 27.0 °F 21.6 °F 21.0 °F 78% 30.16 in 10.0 mi East 4.6 mph - N/A   Clear
7:54 AM 28.0 °F 21.7 °F 21.0 °F 75% 30.15 in 8.0 mi East 5.8 mph - N/A   Partly Cloudy
8:54 AM 30.9 °F 22.8 °F 21.9 °F 69% 30.14 in 10.0 mi East 9.2 mph - N/A   Partly Cloudy
9:54 AM 34.0 °F 26.0 °F 21.9 °F 61% 30.15 in 10.0 mi ESE 10.4 mph - N/A   Mostly Cloudy
10:54 AM 36.0 °F 27.1 °F 23.0 °F 59% 30.14 in 10.0 mi ESE 13.8 mph - N/A   Scattered Clouds
11:54 AM 39.0 °F 31.4 °F 23.0 °F 53% 30.12 in 10.0 mi ESE 12.7 mph - N/A   Scattered Clouds
12:54 PM 39.9 °F 32.5 °F 24.1 °F 53% 30.09 in 10.0 mi ESE 12.7 mph - N/A   Partly Cloudy
1:54 PM 42.1 °F 35.2 °F 24.1 °F 49% 30.06 in 10.0 mi East 12.7 mph - N/A   Partly Cloudy
2:54 PM 43.0 °F 36.0 °F 24.1 °F 47% 30.04 in 10.0 mi East 13.8 mph - N/A   Partly Cloudy
3:54 PM 44.1 °F 38.1 °F 25.0 °F 47% 30.02 in 10.0 mi East 11.5 mph - N/A   Scattered Clouds
4:54 PM 43.0 °F 35.7 °F 25.0 °F 49% 30.00 in 10.0 mi East 15.0 mph - N/A   Mostly Cloudy
5:54 PM 42.1 °F 34.9 °F 25.0 °F 51% 29.99 in 10.0 mi East 13.8 mph - N/A   Mostly Cloudy
6:54 PM 41.0 °F 34.3 °F 26.1 °F 55% 29.96 in 10.0 mi ENE 11.5 mph - N/A   Overcast
7:54 PM 39.0 °F 29.9 °F 25.0 °F 57% 29.94 in 10.0 mi ENE 17.3 mph - N/A   Mostly Cloudy
8:54 PM 37.9 °F 29.2 °F 26.1 °F 62% 29.96 in 10.0 mi ENE 15.0 mph - N/A   Mostly Cloudy
9:54 PM 37.9 °F 29.6 °F 26.1 °F 62% 29.95 in 10.0 mi East 13.8 mph - N/A   Overcast
10:54 PM 37.0 °F 28.1 °F 25.0 °F 62% 29.89 in 10.0 mi ENE 15.0 mph - N/A   Mostly Cloudy
11:54 PM 37.0 °F 28.5 °F 25.0 °F 62% 29.86 in 10.0 mi ENE 13.8 mph - N/A   Mostly Cloudy